Starlink 4536

operational
NORAD ID: 53783 Int'l Des: 2022-111 Owner: SPXS Country: US Constellation: starlink
LEOCIRCULAR

About Starlink 4536

Description loading...

Live Position

Loading 3D Globe...

Upcoming Passes

Altitude History

Altitude vs Time

uPlot chart will show altitude changes over time

Two-Line Element Set

1 53783U 22111L 25310.85636364 .00001292 00000-0 99283-4 0 9994
2 53783 53.2163 105.4598 0001228 87.3632 272.7501 15.08834850175157
Epoch: Nov 6, 2025 • Age: 7 hours

Current Status

Altitude 545.4 km
Velocity 7.60 km/s
Sub-Earth Point 52.76°N, 86.43°E
Launch Date Sep 11, 2022
Age 3.1 years
Type internet

Technical Details

Classification Payload
Mass 305.00 kg
Dry Mass 290.00 kg
Total Mass 305.00 kg
Length 0.20 m
Diameter 2.80 m
Span 9.00 m
Shape Box + pan
Manufacturer SPXS
Bus Type Starlink
Phase Status In Orbit
Owner/State SPXS/US

Large Constellations

Loading constellations...